ChubuSat-2
1 41338U 16012B 24347.35251635 .00008640 00000-0 48079-3 0 9998
2 41338 31.0014 320.9443 0011052 230.1270 129.8397 15.12272306484553
ChubuSat-3
1 41339U 16012C 24347.32142706 .00007889 00000-0 45142-3 0 9996
2 41339 31.0080 321.0857 0011134 231.6849 128.2788 15.11240394484421
Horyu-4
1 41340U 16012D 24347.76544853 .00020970 00000-0 79206-3 0 9999
2 41340 31.0002 244.5096 0008997 354.0503 6.0031 15.25770247485358
Lapan A3
1 41603U 16040E 24347.75389471 .00004550 00000-0 17045-3 0 9993
2 41603 97.1386 353.6370 0011354 177.2246 182.9059 15.27697208470462
Pratham
1 41783U 16059A 24347.49602948 .00001498 00000-0 28117-3 0 9990
2 41783 97.8290 358.4927 0032148 172.0142 188.1581 14.65764605438655
CAS-2T
1 41847U 16066G 24347.30712326 .00001857 00000-0 27549-3 0 9998
2 41847 98.4435 57.2575 0349526 0.5972 359.5567 14.42533483425167
CAS-4B
1 42759U 17034B 24347.74934615 .00035613 00000-0 83582-3 0 9998
2 42759 43.0143 288.8918 0013420 132.8465 227.3521 15.41324983414828
CAS-4A
1 42761U 17034D 24347.79479478 .00035079 00000-0 81477-3 0 9994
2 42761 43.0178 286.7645 0014463 141.5515 218.6375 15.41628135414842
D-SAT
1 42794U 17036AF 24347.76109559 .00010190 00000-0 63233-3 0 9996
2 42794 97.4951 323.7515 0099255 260.4142 98.5859 15.05818361407573
TechnoSat
1 42829U 17042E 24347.48078961 .00005308 00000-0 43720-3 0 9997
2 42829 97.3845 158.9723 0012417 189.1873 170.9126 14.99409779403866
AO-91
1 43017U 17073E 24347.62953177 .00010752 00000-0 59525-3 0 9997
2 43017 97.5481 217.2046 0193324 54.2789 307.6249 14.99383406382348
S-Net D
1 43186U 18014G 24347.21652933 .00008788 00000-0 56676-3 0 9991
2 43186 97.5762 246.1911 0011182 113.6760 246.5643 15.08482963375305
S-Net B
1 43187U 18014H 24347.28630061 .00008489 00000-0 54770-3 0 9998
2 43187 97.5767 246.2215 0012051 110.2429 250.0097 15.08469036375310
S-Net A
1 43188U 18014J 24347.28377347 .00008624 00000-0 55606-3 0 9994
2 43188 97.5775 246.3478 0011913 110.9530 249.2974 15.08486704375313
S-Net C
1 43189U 18014K 24347.28834627 .00008279 00000-0 53403-3 0 9993
2 43189 97.5789 246.3351 0013709 104.8227 255.4521 15.08466064373861
Ten-Koh
1 43677U 18084G 24347.38503869 .00005205 00000-0 43840-3 0 9994
2 43677 98.0777 146.7200 0014203 144.8723 215.3438 14.98600932333384
PO-101
1 43678U 18084H 24347.72680864 .00002839 00000-0 25309-3 0 9994
2 43678 98.0858 151.3725 0009228 154.9498 205.2172 14.96834205333610
QO-100
1 43700U 18090A 24347.52788622 .00000159 00000-0 00000-0 0 9997
2 43700 0.0177 320.8849 0002398 338.8209 357.8466 1.00271233 22147
MinXSS-2
1 43758U 18099A 24347.12599081 .00018854 00000-0 94980-3 0 9998
2 43758 97.5319 47.4351 0014986 66.5064 293.7742 15.17126701329685
AO-95
1 43770U 18099N 24347.15419615 .00012445 00000-0 73201-3 0 9992
2 43770 97.5227 41.6283 0013451 111.1821 249.0848 15.11720454329399
RANGE-B
1 43772U 18099Q 24347.63431795 .00019733 00000-0 92865-3 0 9994
2 43772 97.5019 46.6099 0004444 20.7090 339.4324 15.19579529329728
RANGE-A
1 43773U 18099R 24347.60622507 .00006449 00000-0 44496-3 0 9992
2 43773 97.4789 35.2724 0013770 86.2852 273.9950 15.06049442329253
MOVE-II
1 43780U 18099Y 24347.41324306 .00051712 00000-0 16066-2 0 9999
2 43780 97.4967 50.3892 0005044 75.2649 284.9152 15.33167331330054
SNUSat 2
1 43782U 18099AA 24347.37875309 .00010868 00000-0 67119-3 0 9993
2 43782 97.4903 39.9393 0014287 55.7397 304.5183 15.09970938329416
SnugLite
1 43784U 18099AC 24347.15367581 .00012811 00000-0 74923-3 0 9990
2 43784 97.4722 39.0370 0005183 67.6929 292.4850 15.11983715329473
ITASat 1
1 43786U 18099AE 24347.08893030 .00009353 00000-0 59486-3 0 9991
2 43786 97.4878 39.6140 0017128 103.6027 256.7111 15.08898037329358
EAGLET 1
1 43790U 18099AJ 24347.43283324 .00007404 00000-0 50717-3 0 9997
2 43790 97.5065 40.3410 0014128 83.9310 276.3526 15.06265992329076
ESEO
1 43792U 18099AL 24347.73143462 .00002732 00000-0 21635-3 0 9996
2 43792 97.4839 36.0969 0009830 53.6785 306.5346 15.01351329328970
CSIM
1 43793U 18099AM 24347.45430985 .00050559 00000-0 15924-2 0 9998
2 43793 97.5121 52.2882 0008836 49.3753 310.8256 15.32711963329902
JO-97
1 43803U 18099AX 24347.64697530 .00014001 00000-0 76907-3 0 9993
2 43803 97.4969 42.8768 0009453 53.7558 306.4546 15.14188007329639
Suomi 100
1 43804U 18099AY 24347.42836868 .00012932 00000-0 74009-3 0 9991
2 43804 97.5042 42.3360 0014989 53.3878 306.8729 15.12679875329562
ISAT
1 43879U 18111D 24347.54759672 .00018807 00000-0 88391-3 0 9994
2 43879 97.6070 253.2567 0013572 98.8417 261.4354 15.19563863326415
UWE-4
1 43880U 18111E 24346.97493954 .00017379 00000-0 86723-3 0 9990
2 43880 97.5996 252.1409 0016394 111.1281 249.1706 15.17458018326315
Sparrow
1 43881U 18111F 24347.51315827 .00019724 00000-0 90729-3 0 9991
2 43881 97.6180 255.5219 0009956 129.8127 230.3986 15.20334446326481
Prox-1
1 44339U 19036A 24347.79096190 .00014530 00000-0 21408-2 0 9993
2 44339 23.9967 150.8201 0006862 197.3578 162.6683 14.73658998291644
SONATE
1 44400U 19038Q 24347.59765385 .00041720 00000-0 73437-3 0 9992
2 44400 97.7120 351.5626 0011531 172.0666 188.0769 15.50272718301558
Taurus 1
1 44530U 19059C 24347.75681239 .00010720 00000-0 21893-2 0 9996
2 44530 98.5890 113.5210 0010710 225.6596 134.3727 14.61042311277785
Duchifat 3
1 44854U 19089C 24347.48995286 .00032411 00000-0 11375-2 0 9993
2 44854 36.9514 37.8962 0011173 156.7176 203.4083 15.28501005275445
TO-108
1 44881U 19093C 24347.76060699 .00001937 00000-0 23393-3 0 9993
2 44881 97.8136 61.0672 0015406 97.6395 262.6570 14.84822681269535
FloripaSat 1
1 44885U 19093G 24347.71797685 .00008492 00000-0 78601-3 0 9999
2 44885 97.8310 69.3448 0012557 84.9414 275.3239 14.94713135269997
RS-44
1 44909U 19096E 24347.52066284 .00000037 00000-0 10781-3 0 9994
2 44909 82.5215 346.2717 0217379 354.5734 5.3012 12.79736887231837
UPMSat 2
1 46276U 20061E 24347.21600723 .00036506 00000-0 72958-3 0 9999
2 46276 97.2746 52.5339 0000982 155.2703 204.8594 15.46718744237563
AmicalSat
1 46287U 20061R 24347.59393724 .00255071 00000-0 14704-2 0 9996
2 46287 97.3175 58.2320 0002994 275.8522 84.2403 15.77966487237212
SALSAT
1 46495U 20068K 24347.36386659 .00010850 00000-0 53333-3 0 9994
2 46495 97.8394 311.9726 0014915 65.5657 294.7130 15.18131117231295
CubeSX-Sirius-HSE
1 47951U 21022V 24347.74823995 .00048797 00000-0 11100-2 0 9990
2 47951 97.4406 247.2578 0007218 205.8674 154.2214 15.42805521205923
CubeSX-HSE
1 47952U 21022W 24347.74276427 .00044772 00000-0 10071-2 0 9998
2 47952 97.4402 247.4002 0007324 203.6891 156.4020 15.43160016205933
KSU-Cubesat
1 47954U 21022Y 24347.21123991 .00092966 00000-0 15014-2 0 9999
2 47954 97.4406 249.5769 0005902 178.8691 181.2576 15.52534428205746
GRBAlpha
1 47959U 21022AD 24347.76588568 .00047611 00000-0 10712-2 0 9996
2 47959 97.4403 247.5914 0007264 203.6381 156.4533 15.43139228204761
